Home   Weather   Melvisharam   Past weeks
Flag for India

Past Weather in Melvisharam, Tamil Nadu, India — Yesterday and Last 2 Weeks

Now
90 °F

Scattered clouds.


Feels Like: 98 °F
Forecast: 101 / 69 °F
Wind: 9 mph from Southwest

Location: Madras / Minambakkam

Current Time: Apr 3, 2020 at 10:38:48 am

Latest Report: Apr 3, 2020 at 10:00 am


Visibility: 3 mi

Pressure: 29.89 "Hg

Humidity: 59%

Dew Point: 73 °F

Location of MelvisharamLocation

Past Weather in Melvisharam — Graph

°F

Melvisharam Temperature Yesterday

Maximum temperature yesterday: 95 °F (at 12:30 pm)
Minimum temperature yesterday: 79 °F (at 4:30 am)
Average temperature yesterday: 86 °F

High & Low Weather Summary for the Past Weeks

 TemperatureHumidityPressure
High99 °F (Apr 1, 2:30 pm)94% (Mar 20, 6:30 am)29.98 "Hg (Mar 20, 6:30 am)
Low75 °F (Mar 28, 5:30 am)35% (Apr 1, 2:30 pm)29.74 "Hg (Apr 2, 3:30 pm)
Average85 °F69%29.86 "Hg
* Reported Mar 19 9:30 am — Apr 3 9:30 am, Melvisharam. Weather by CustomWeather, © 2020

Note: Actual official high and low records may vary slightly from our data, if they occured in-between our weather recording intervals... More about our weather records

Melvisharam Weather History for the Previous 24 Hours

Scroll right to see more
 ConditionsComfort  
Time TempWeatherWind HumidityBarometerVisibility
9:30 am
Fri, Apr 3
88 °FScattered clouds.9 mph62%29.92 "Hg2 mi
8:30 am86 °FScattered clouds.9 mph75%29.89 "Hg2 mi
8:00 am84 °FHaze.2 mph79%29.89 "Hg2 mi
7:30 am82 °FFog.2 mph84%29.86 "Hg2 mi
7:00 am82 °FFog.5 mph84%29.86 "Hg1 mi
6:30 am81 °FFog.5 mph84%29.86 "Hg1 mi
5:30 am81 °FFog.5 mph89%29.83 "Hg2 mi
5:00 am81 °FFog.5 mph89%29.83 "Hg2 mi
4:30 am82 °FFog.3 mph84%29.80 "Hg2 mi
3:30 am82 °FPassing clouds.3 mph84%29.80 "Hg3 mi
2:30 am82 °FPassing clouds.3 mph84%29.80 "Hg3 mi
1:30 am82 °FPassing clouds.3 mph84%29.80 "Hg4 mi
12:30 am82 °FPassing clouds.5 mph84%29.83 "Hg4 mi
11:30 pm
Thu, Apr 2
82 °FClear.5 mph84%29.89 "Hg4 mi
10:30 pm84 °FClear.6 mph79%29.86 "Hg4 mi
9:30 pm84 °FClear.8 mph79%29.83 "Hg4 mi
8:30 pm84 °FClear.6 mph74%29.83 "Hg4 mi
7:30 pm86 °FClear.7 mph66%29.80 "Hg4 mi
6:30 pm88 °FClear.7 mph62%29.77 "Hg4 mi
5:30 pm90 °FClear.9 mph59%29.77 "Hg4 mi
4:30 pm91 °FClear.10 mph52%29.74 "Hg5 mi
3:30 pm93 °FClear.12 mph53%29.74 "Hg5 mi
2:30 pm93 °FClear.10 mph49%29.77 "Hg4 mi
1:30 pm95 °FClear.10 mph44%29.80 "Hg4 mi
12:30 pm95 °FPassing clouds.9 mph44%29.83 "Hg4 mi
11:30 am93 °FScattered clouds.7 mph53%29.86 "Hg4 mi
10:30 am91 °FScattered clouds.7 mph59%29.89 "Hg4 mi
Weather by CustomWeather, © 2020

See weather overview

Advertising